Other Public Products
Issued by NWS Charleston, SC

Home | Current Version | Previous Version | Text Only | Print | Product List | Glossary On
Versions: 1 2 3 4 5 6 7 8 9 10 11 12 13 14 15 16 17 18 19 20 21 22 23 24 25 26 27 28 29 30 31 32 33 34 35 36 37 38 39 40 41 42 43 44 45 46 47 48 49 50
000
FPUS82 KCHS 212142
OPUCHS

TEST...KCHS/KSAV Gateway Observations...TEST
National Weather Service Charleston SC
500 PM EDT THU SEP 21 2017

NOTE: "fair" indicates few or no clouds below 12,000 feet with no
significant weather and/or obstructions to visibility.

SCZ050-WAZ558-NCZ071-TXZ119-213-PAZ071-DCZ001-FLZ074-172-MI076-
NYZ176-178-MAZ016-IL014-TNZ027-NJZ106-GAZ044-MD014-212200-

...Gateway Observations for Charleston International...

CITY           SKY/WX    TMP DP  RH WIND       PRES   REMARKS
Chas Airport   PTSUNNY   78  65  63 W6        29.97F
Seattle        PTSUNNY   57  48  72 W6        29.95S
Charlotte      MOSUNNY   88  59  37 NW7       30.01F
Dallas DFW     MOSUNNY   96  68  39 S15       29.85F HX 101
Dallas Love    MOSUNNY   96  67  38 SE12      29.86F HX 100
Philladelphia  PTSUNNY   87  61  41 N10G21    29.98S
Wash National  MOSUNNY   85  65  51 N5        30.01S
Baltimore      MOSUNNY   86  64  47 NW9       30.00S
Miami          CLOUDY    87  76  69 NE8       29.89F HX  97
Detroit        MOSUNNY   87  73  62 SE10      30.03F HX  94
Newark         CLOUDY    83  57  41 N17G24    29.99R
Laguardia      CLOUDY    79  63  57 N14       29.99R
J F K          CLOUDY    79  64  60 N15       29.99R
Boston Logan   PTSUNNY   72  53  51 N21G28    30.00S
Ft. Lauderdale PTSUNNY   86  77  74 NE13      29.88F HX  97
Chicago O`Hare PTSUNNY   94  61  33 S6        29.97F HX  94
Chicago Midway MOSUNNY   94  66  39 SW8       29.97F HX  97
Houston Bush   CLOUDY    78  72  81 S8        29.95R
Houston Hobby  LGT RAIN  77  72  84 S5        29.96R
Nashville      MOSUNNY   89  67  47 E5        30.02F HX  92
Atlanta        MOSUNNY   87  65  47 VRB3      30.00F

$$

GAZ044-118-TXZ119-213-NCZ071-DCZ001-MDZ014-506-PAZ021-071-NJZ106-
NYZ176-178-MAZ106-OHZ011-021-055-MIZ076-KYZ091-ILZ014-INZ047-
MNZ060-ONZ431-212200-

...Gateway Observations for Savannah International...

CITY           SKY/WX    TMP DP  RH WIND       PRES   REMARKS
Savannah Arpt  PTSUNNY   88  70  55 S8        29.96F HX  93
Atlanta        MOSUNNY   87  65  47 VRB3      30.00F
Charlotte      MOSUNNY   88  59  37 NW7       30.01F
Dallas DFW     MOSUNNY   96  68  39 S15       29.85F HX 101
Houston Bush   CLOUDY    78  72  81 S8        29.95R
Wash National  MOSUNNY   85  65  51 N5        30.01S
Wash Dulles    PTSUNNY   85  64  49 VRB5      30.02F
Baltimore      MOSUNNY   86  64  47 NW9       30.00S
Philadelphia   PTSUNNY   87  61  41 N10G21    29.98S
Newark         CLOUDY    83  57  41 N17G24    29.99R
Laguardia      CLOUDY    79  63  57 N14       29.99R
J F K          CLOUDY    79  64  60 N15       29.99R
Boston         PTSUNNY   72  53  51 N21G28    30.00S
Pittsburg      MOSUNNY   84  62  47 CALM      30.08F
Akron          MOSUNNY   89  59  36 NE3       30.08F
Cleveland      MOSUNNY   89  66  46 N12       30.08F HX  91
Cincinnati     MOSUNNY   87  71  58 SW3       30.05F HX  93
Columbus       SUNNY     86  65  49 CALM      30.04F
Detroit        MOSUNNY   87  73  62 SE10      30.03F HX  94
Chicago O`Hare PTSUNNY   94  61  33 S6        29.97F HX  94
Minneapolis    MOSUNNY   83  69  62 SE14G22   29.82F
Indianapolis   MOSUNNY   90  67  46 SW5       30.03F HX  93
Toronto Canada SUNNY     81  59  47 E8        30.10S

$$




USA.gov is the U.S. government's official web portal to all federal, state and local government web resources and services.